This demonstration page uses our WeatherBlox Daily Observations layout. Learn more.

Left ArrowRight Arrow

Hourly Observations for May 17, 2022

Temp ( °F °C ) Dew Point ( °F °C ) Humidity (%) Winds ( mph kmh ) Pressure ( in mb ) Visibility ( mi km ) Precip ( " mm )
12:15 am 00:15 undefined 57 14.1 48 8.8 71 71 WSW 6 9 29.92 1013 10 16 0.00 0.00
12:35 am 00:35 undefined 58 14.6 47 8.2 66 66 WSW 6 9 29.91 1013 10 16 0.00 0.00
12:55 am 00:55 undefined 58 14.4 47 8.3 67 67 WSW 6 9 29.92 1013 10 16 0.00 0.00
1:15 am 01:15 undefined 57 13.8 47 8.3 70 70 WSW 6 9 29.92 1013 10 16 0.00 0.00
1:35 am 01:35 undefined 57 13.8 46 7.9 68 68 W 6 9 29.92 1013 10 16 0.00 0.00
1:55 am 01:55 undefined 56 13.6 46 8 69 69 WSW 5 7 29.92 1013 10 16 0.00 0.00
2:15 am 02:15 undefined 56 13.3 46 7.7 69 69 WSW 6 9 29.92 1013 10 16 0.00 0.00
2:35 am 02:35 undefined 56 13.5 46 7.7 68 68 W 6 9 29.92 1013 10 16 0.00 0.00
2:55 am 02:55 undefined 56 13.4 46 7.7 69 69 Calm 29.91 1013 10 16 0.00 0.00
3:15 am 03:15 undefined 56 13.2 46 7.5 69 69 Calm 29.91 1013 10 16 0.00 0.00
3:35 am 03:35 undefined 56 13.2 46 7.5 69 69 Calm 29.92 1013 10 16 0.00 0.00
3:55 am 03:55 undefined 56 13.5 45 7.4 67 67 Calm 29.92 1013 10 16 0.00 0.00
4:15 am 04:15 undefined 56 13.5 45 7.4 67 67 Calm 29.92 1013 10 16 0.00 0.00
4:35 am 04:35 undefined 56 13.1 45 7.2 68 68 Calm 29.93 1014 10 16 0.00 0.00
4:55 am 04:55 undefined 55 12.5 45 7.1 70 70 Calm 29.93 1014 10 16 0.00 0.00
5:15 am 05:15 undefined 55 12.5 45 7.1 70 70 Calm 29.94 1014 10 16 0.00 0.00
5:35 am 05:35 undefined 55 12.6 44 6.6 67 67 Calm 29.94 1014 10 16 0.00 0.00
5:55 am 05:55 undefined 55 12.6 44 6.5 67 67 Calm 29.94 1014 10 16 0.00 0.00
6:15 am 06:15 undefined 54 12.4 44 6.6 68 68 W 5 7 29.94 1014 10 16 0.00 0.00
6:35 am 06:35 undefined 54 12.1 44 6.4 68 68 W 3 6 29.94 1014 10 16 0.00 0.00
6:55 am 06:55 undefined 54 12.2 44 6.7 69 69 WNW 3 6 29.95 1014 10 16 0.00 0.00
7:15 am 07:15 undefined 54 12.2 46 7.6 74 74 W 3 6 29.96 1015 10 16 0.00 0.00
7:35 am 07:35 undefined 56 13.6 46 7.5 67 67 WNW 5 7 29.97 1015 10 16 0.00 0.00
7:55 am 07:55 undefined 58 14.5 47 8.1 66 66 WNW 5 7 29.98 1015 10 16 0.00 0.00
8:15 am 08:15 undefined 59 15.1 46 7.9 62 62 Calm 29.98 1015 10 16 0.00 0.00
8:35 am 08:35 undefined 60 15.6 47 8.2 62 62 NNW 7 11 29.98 1015 10 16 0.00 0.00
8:55 am 08:55 undefined 61 16.2 47 8.3 60 60 NNW 6 9 29.99 1016 10 16 0.00 0.00
9:15 am 09:15 undefined 62 16.7 47 8.2 57 57 N 3 6 30.00 1016 10 16 0.00 0.00
9:35 am 09:35 undefined 64 17.5 47 8.3 55 55 NNE 6 9 30.00 1016 10 16 0.00 0.00
9:55 am 09:55 undefined 64 17.9 47 8.2 53 53 Calm 30.01 1016 10 16 0.00 0.00
10:15 am 10:15 undefined 65 18.4 47 8.6 53 53 N 3 6 30.01 1016 10 16 0.00 0.00
10:35 am 10:35 undefined 66 18.8 47 8.4 51 51 NNW 7 11 30.03 1017 10 16 0.00 0.00
10:55 am 10:55 undefined 67 19.7 48 8.8 50 50 NNW 5 7 30.03 1017 10 16 0.00 0.00
11:15 am 11:15 undefined 68 20.1 47 8.3 47 47 NW 7 11 30.04 1017 10 16 0.00 0.00
11:35 am 11:35 undefined 69 20.6 46 8 44 44 NE 5 7 30.02 1017 10 16 0.00 0.00
11:55 am 11:55 undefined 69 20.8 46 7.8 43 43 NNE 5 7 30.02 1017 10 16 0.00 0.00
12:15 pm 12:15 undefined 70 21.1 46 7.7 42 42 NW 6 9 30.02 1017 10 16 0.00 0.00
12:35 pm 12:35 undefined 71 21.6 46 7.8 41 41 NNW 6 9 30.02 1017 10 16 0.00 0.00
12:55 pm 12:55 undefined 72 22.2 47 8.3 41 41 NNW 7 11 30.02 1017 10 16 0.00 0.00
1:15 pm 13:15 undefined 72 22.4 46 8 40 40 Calm 30.02 1017 10 16 0.00 0.00
1:35 pm 13:35 undefined 73 22.6 47 8.5 41 41 N 7 11 30.01 1016 10 16 0.00 0.00
1:55 pm 13:55 undefined 74 23.2 48 9.1 41 41 NW 7 11 30.01 1016 10 16 0.00 0.00
2:15 pm 14:15 undefined 73 23 47 8.3 39 39 NW 8 13 30.00 1016 10 16 0.00 0.00
2:35 pm 14:35 undefined 74 23.2 46 8 38 38 NW 7 11 30.00 1016 10 16 0.00 0.00
2:55 pm 14:55 undefined 73 22.9 47 8.2 39 39 NNW 8 13 30.00 1016 10 16 0.00 0.00
3:15 pm 15:15 undefined 73 22.9 47 8.1 39 39 NNW 12 19 30.00 1016 10 16 0.00 0.00
3:35 pm 15:35 undefined 75 23.7 46 8 37 37 NNW 10 17 29.99 1016 10 16 0.00 0.00
3:55 pm 15:55 undefined 75 23.7 47 8.4 38 38 WNW 8 13 29.99 1016 10 16 0.00 0.00
4:15 pm 16:15 undefined 73 23 47 8.3 39 39 NW 9 15 30.00 1016 10 16 0.00 0.00
4:35 pm 16:35 undefined 73 23 47 8.4 39 39 NW 3 6 30.00 1016 10 16 0.00 0.00
4:55 pm 16:55 undefined 73 22.5 46 7.9 39 39 NNW 9 15 30.00 1016 10 16 0.00 0.00
5:15 pm 17:15 undefined 74 23.5 47 8.6 39 39 Calm 29.98 1015 10 16 0.00 0.00
5:35 pm 17:35 undefined 74 23.3 47 8.4 39 39 NNW 8 13 29.99 1015 10 16 0.00 0.00
5:55 pm 17:55 undefined 73 22.8 45 7.1 36 36 Calm 29.98 1015 10 16 0.00 0.00
6:15 pm 18:15 undefined 73 23 46 8 38 38 Calm 29.99 1015 10 16 0.00 0.00
6:35 pm 18:35 undefined 73 22.9 45 7.4 37 37 N 7 11 29.98 1015 10 16 0.00 0.00
6:55 pm 18:55 undefined 73 23 48 8.9 41 41 Calm 29.98 1015 10 16 0.00 0.00
7:15 pm 19:15 undefined 72 22.2 47 8.6 42 42 NE 7 11 29.98 1015 10 16 0.00 0.00
7:35 pm 19:35 undefined 71 21.8 48 9.1 44 44 NE 6 9 29.97 1015 10 16 0.00 0.00
7:55 pm 19:55 undefined 70 21.2 49 9.2 46 46 Calm 29.97 1015 10 16 0.00 0.00
8:15 pm 20:15 undefined 70 20.9 48 8.9 46 46 NE 5 7 29.97 1015 10 16 0.00 0.00
8:35 pm 20:35 undefined 69 20.3 49 9.2 49 49 Calm 29.98 1015 10 16 0.00 0.00
8:55 pm 20:55 undefined 68 19.9 51 10.5 55 55 Calm 29.97 1015 10 16 0.00 0.00
9:15 pm 21:15 undefined 67 19.6 49 9.3 52 52 Calm 29.98 1015 10 16 0.00 0.00
9:35 pm 21:35 undefined 64 17.8 53 11.5 67 67 Calm 29.98 1015 10 16 0.00 0.00
9:55 pm 21:55 undefined 64 17.6 52 10.9 65 65 Calm 29.98 1015 10 16 0.00 0.00
10:15 pm 22:15 undefined 63 17.1 51 10.5 65 65 Calm 30.01 1016 10 16 0.00 0.00
10:35 pm 22:35 undefined 65 18.3 48 9.1 55 55 Calm 30.01 1016 10 16 0.00 0.00
10:55 pm 22:55 undefined 64 17.9 49 9.3 57 57 Calm 30.01 1016 10 16 0.00 0.00
11:15 pm 23:15 undefined 64 17.8 49 9.2 57 57 Calm 30.01 1016 10 16 0.00 0.00
11:35 pm 23:35 undefined 63 17.3 48 9 58 58 NE 6 9 30.02 1016 10 16 0.00 0.00
11:55 pm 23:55 undefined 64 17.5 47 8.4 55 55 ENE 3 6 30.01 1016 10 16 0.00 0.00

Powered by AerisWeather